Simultaneous Nadir Overpasses (SNOs) Predictions

Prediction of SNOs between GOES-17 and AQUA Satellite Orbit:

Table of predicted SNOs for the next 14.0 days since TLE Epoch: 3/11/2023
Index Date Time (GOES-17) GOES-17 Lat,Lon AQUA Lat,Lon Distance(km) Time Diff (sec)
1 03/11/2023 08:50:49 0.02,-104.73 0.30,-105.90 133.64 80
2 03/13/2023 08:34:37 0.03,-104.74 -0.44,-102.61 242.59 80
3 03/13/2023 20:55:40 -0.03,-104.74 -0.66,-107.70 336.56 80
4 03/15/2023 20:44:46 -0.03,-104.74 0.07,-104.40 40.08 80
5 03/17/2023 20:31:10 -0.04,-104.74 0.75,-101.08 417.05 80
6 03/18/2023 08:52:03 0.04,-104.74 0.34,-106.14 158.79 80
7 03/20/2023 08:35:46 0.05,-104.74 -0.38,-102.82 219.32 80
8 03/20/2023 20:56:48 -0.05,-104.75 -0.70,-107.91 359.65 80
9 03/22/2023 20:45:49 -0.05,-104.76 0.01,-104.59 19.90 80
10 03/24/2023 20:32:08 -0.05,-104.77 0.68,-101.24 399.91 80
